[[{"header":{"parameterUnit":"m.s-1","parameterCategory":1,"la1":30.2991,"la2":30.254,"lo1":-89.0895,"lo2":-89.0444,"dy":0.0017,"dx":0.0017,"nx":28,"ny":28,"refTime":"2025-08-17T03:00:00:Z","depth":0,"parameterNumber":2,"parameterNumberName":"U-component_of_WINDS"},"data":[0,0,0,0,0,0,0,0,0,0,0,0,0,0,0,0,0,0,0,0,0,0,0,0,0,0,0,0,0,0,0,0,0,0,0,0,0,0,0,0,0,0,0,0,0,0,0,0,0,0,0,0,0,0,0,0,0,0,-0.2138,-0.2139,0,-0.221,-0.2211,-0.2212,-0.226,-0.226,-0.226,-0.2261,-0.2337,-0.2338,-0.234,0,0,0,0,0,0,0,0,0,0,0,0,0,-0.2045,-0.2046,-0.2138,-0.2139,-0.214,-0.221,-0.2211,-0.2212,-0.226,-0.226,-0.2261,-0.2261,-0.2336,-0.2338,-0.234,0,0,0,0,0,0,0,0,0,0,0,0,0,-0.2098,-0.2047,-0.2138,-0.2172,-0.2176,-0.221,-0.2211,-0.2212,-0.226,-0.226,-0.2261,-0.2261,-0.2336,-0.2338,-0.2341,-0.2347,0,0,-0.2348,-0.235,0,0,0,0,0,0,0,0,-0.2095,-0.2101,-0.2166,-0.217,-0.2174,-0.2226,-0.2206,-0.2257,-0.2259,-0.2228,-0.2261,-0.2261,-0.23,-0.2305,-0.2318,-0.235,-0.2353,-0.2349,-0.235,-0.2351,-0.2352,0,0,0,0,0,0,0,-0.2091,-0.2099,-0.2167,-0.2167,-0.2172,-0.2185,-0.2193,-0.2216,-0.226,-0.2231,-0.2234,-0.2242,-0.2302,-0.2315,-0.232,-0.2354,-0.2349,-0.2351,-0.2352,-0.2353,-0.2395,-0.2395,0,0,0,0,0,0,-0.2082,-0.2095,-0.2164,-0.2169,-0.2135,-0.2186,-0.2195,-0.2209,-0.226,-0.2268,-0.2242,-0.2244,-0.2311,-0.2317,-0.2323,-0.2334,-0.2351,-0.2354,-0.2355,-0.2396,-0.2395,-0.2395,0,0,0,0,0,0,-0.208,-0.2087,-0.2162,-0.2133,-0.2143,-0.2187,-0.2203,-0.221,-0.2224,-0.2268,-0.2277,-0.2247,-0.2311,-0.2319,-0.234,-0.2337,-0.2355,-0.2357,-0.2396,-0.2396,-0.2395,-0.2355,0,0,0,0,0,0,-0.2077,-0.2086,-0.2089,-0.2133,-0.2145,-0.2177,-0.2202,-0.2211,-0.2228,-0.2231,-0.2275,-0.2283,-0.2312,-0.2336,-0.2343,-0.2341,-0.2359,-0.2397,-0.2396,-0.2395,-0.2356,-0.2353,-0.2349,0,0,0,0,0,-0.2073,-0.2075,-0.2089,-0.2097,-0.2148,-0.2177,-0.2184,-0.2216,-0.2227,-0.223,-0.2259,-0.2282,-0.2336,-0.2338,-0.2346,-0.2344,-0.2397,-0.2396,-0.2395,-0.2358,-0.2353,-0.2349,0,0,0,0,0,0,-0.2031,-0.2082,-0.2097,-0.2113,-0.214,-0.2185,-0.219,-0.221,-0.2236,-0.2238,-0.2278,-0.2288,-0.2305,-0.2327,-0.2328,-0.2353,-0.2369,-0.237,-0.2338,-0.2334,-0.2331,-0.2326,-0.2361,0,0,0,0,0,-0.2023,-0.2041,-0.2085,-0.2095,-0.2107,-0.2146,-0.2159,-0.2182,-0.2212,-0.2224,-0.2254,-0.2283,-0.2307,-0.2321,-0.2346,-0.2359,-0.237,-0.2362,-0.2359,-0.2356,-0.2356,-0.2365,-0.2363,-0.2392,-0.2392,-0.2392,0,0,-0.2008,-0.2038,-0.2047,-0.2087,-0.2111,-0.2129,-0.2155,-0.2174,-0.2188,-0.2227,-0.2249,-0.2272,-0.2307,-0.2324,-0.2333,-0.2343,-0.235,-0.2354,-0.2351,-0.2354,-0.2364,-0.2361,-0.2359,-0.2391,-0.2391,-0.2391,0,0,-0.199,-0.2014,-0.2025,-0.2048,-0.2083,-0.2108,-0.211,-0.2152,-0.2168,-0.219,-0.222,-0.2237,-0.2277,-0.2301,-0.2318,-0.2307,-0.2329,-0.2314,-0.2296,-0.2304,-0.2302,-0.23,-0.2297,-0.2296,-0.2314,-0.2314,-0.2314,0,-0.1968,-0.1996,-0.2029,-0.2045,-0.2062,-0.2096,-0.2108,-0.2129,-0.217,-0.2181,-0.2191,-0.2241,-0.2267,-0.229,-0.2287,-0.23,-0.2304,-0.231,-0.23,-0.2298,-0.2297,-0.2295,-0.2293,-0.2312,-0.2312,-0.2312,-0.2312,0,-0.1966,-0.1985,-0.199,-0.2028,-0.2045,-0.2059,-0.2094,-0.2108,-0.2128,-0.2153,-0.2175,-0.2207,-0.2238,-0.2245,-0.2266,-0.2271,-0.2276,-0.2292,-0.2309,-0.2292,-0.229,-0.2289,-0.2309,-0.2309,-0.231,-0.231,0,0,-0.1926,-0.198,-0.1981,-0.1999,-0.2039,-0.2055,-0.207,-0.2099,-0.2111,-0.2137,-0.2152,-0.2184,-0.2199,-0.2218,-0.2241,-0.2249,-0.2239,-0.2264,-0.2265,-0.2259,-0.2248,-0.2236,-0.2234,-0.2253,-0.2253,-0.2253,-0.2245,0,-0.1915,-0.1944,-0.1973,-0.1992,-0.201,-0.2042,-0.2056,-0.2082,-0.2105,-0.2124,-0.215,-0.2172,-0.219,-0.2202,-0.221,-0.2238,-0.2237,-0.2239,-0.2268,-0.2269,-0.226,-0.2234,-0.2222,-0.2213,-0.2244,-0.2244,-0.2244,0,-0.1906,-0.193,-0.195,-0.1988,-0.1997,-0.2009,-0.2038,-0.2055,-0.2086,-0.2102,-0.2123,-0.2147,-0.2166,-0.218,-0.2206,-0.2207,-0.222,-0.2236,-0.2236,-0.2241,-0.2256,-0.2239,-0.2211,-0.221,-0.2244,-0.2244,-0.2244,0,-0.1875,-0.1913,-0.193,-0.1944,-0.1988,-0.1995,-0.2014,-0.2045,-0.2061,-0.2086,-0.2097,-0.2124,-0.214,-0.2161,-0.2192,-0.2199,-0.2215,-0.2232,-0.223,-0.223,-0.2234,-0.2233,-0.2208,-0.224,-0.224,-0.224,-0.224,0,-0.1861,-0.1872,-0.1917,-0.1927,-0.1941,-0.1974,-0.1987,-0.2009,-0.2036,-0.2052,-0.2082,-0.2096,-0.2136,-0.2155,-0.218,-0.2199,-0.2205,-0.2219,-0.2226,-0.2217,-0.2216,-0.2228,-0.223,-0.224,-0.224,-0.224,-0.224,0,-0.183,-0.186,-0.188,-0.192,-0.193,-0.1939,-0.1973,-0.1985,-0.2009,-0.2028,-0.2035,-0.2073,-0.2097,-0.213,-0.2165,-0.2181,-0.2197,-0.2207,-0.2186,-0.2191,-0.2187,-0.2188,-0.217,-0.217,-0.22,-0.22,-0.22,0,-0.1819,-0.1828,-0.1868,-0.1881,-0.1898,-0.1918,-0.1933,-0.1966,-0.1982,-0.2016,-0.2024,-0.205,-0.2073,-0.211,-0.2142,-0.2168,-0.218,-0.2172,-0.2184,-0.2175,-0.2181,-0.218,-0.2182,-0.2169,-0.2169,-0.2168,-0.2168,0,-0.1797,-0.1811,-0.1832,-0.1858,-0.1875,-0.1897,-0.1921,-0.193,-0.1968,-0.1983,-0.2008,-0.2025,-0.206,-0.2086,-0.2117,-0.2137,-0.2159,-0.2163,-0.2165,-0.2157,-0.2145,-0.2152,-0.2179,-0.2164,-0.2165,-0.2165,-0.2165,-0.2165,-0.1777,-0.1786,-0.1816,-0.1838,-0.1859,-0.188,-0.1893,-0.1918,-0.1938,-0.1969,-0.1987,-0.2011,-0.2041,-0.2084,-0.2103,-0.2123,-0.2132,-0.2133,-0.2134,-0.2134,-0.2132,-0.214,-0.2128,-0.2129,-0.2129,-0.2129,-0.2129,0,-0.1757,-0.1777,-0.1797,-0.1829,-0.1846,-0.1863,-0.189,-0.1904,-0.1924,-0.195,-0.1971,-0.1999,-0.2024,-0.2057,-0.2084,-0.2094,-0.2105,-0.21,-0.21,-0.2105,-0.2122,-0.2118,-0.2091,-0.2091,-0.2091,-0.2091,-0.2091,-0.2091,-0.1749,-0.1767,-0.1784,-0.1812,-0.1833,-0.1855,-0.1869,-0.1889,-0.191,-0.1939,-0.196,-0.198,-0.2009,-0.2038,-0.2062,-0.2071,-0.208,-0.2073,-0.2085,-0.21,-0.2104,-0.2107,-0.2104,-0.2074,-0.2074,-0.2067,-0.2067,-0.2067]},{"header":{"parameterUnit":"m.s-1","parameterCategory":1,"la1":30.2991,"la2":30.254,"lo1":-89.0895,"lo2":-89.0444,"dy":0.0017,"dx":0.0017,"nx":28,"ny":28,"refTime":"2025-08-17T03:00:00:Z","depth":0,"parameterNumber":3,"parameterNumberName":"V-component_of_WINDS"},"data":[0,0,0,0,0,0,0,0,0,0,0,0,0,0,0,0,0,0,0,0,0,0,0,0,0,0,0,0,0,0,0,0,0,0,0,0,0,0,0,0,0,0,0,0,0,0,0,0,0,0,0,0,0,0,0,0,0,0,-3.0894,-3.0894,0,-3.0904,-3.0904,-3.0904,-3.0873,-3.0873,-3.0872,-3.0871,-3.0879,-3.088,-3.0881,0,0,0,0,0,0,0,0,0,0,0,0,0,-3.0849,-3.085,-3.0894,-3.0894,-3.0894,-3.0904,-3.0904,-3.0904,-3.0874,-3.0872,-3.0871,-3.087,-3.0878,-3.088,-3.0881,0,0,0,0,0,0,0,0,0,0,0,0,0,-3.0864,-3.085,-3.0894,-3.088,-3.0879,-3.0904,-3.0904,-3.0904,-3.0874,-3.0872,-3.0871,-3.087,-3.0878,-3.0879,-3.0881,-3.0919,0,0,-3.0886,-3.0887,0,0,0,0,0,0,0,0,-3.0864,-3.0866,-3.0882,-3.0881,-3.088,-3.0886,-3.0891,-3.0909,-3.0874,-3.0876,-3.0871,-3.0869,-3.0882,-3.0883,-3.0888,-3.0919,-3.0919,-3.0886,-3.0887,-3.0888,-3.0888,0,0,0,0,0,0,0,-3.0862,-3.0865,-3.0898,-3.0883,-3.0881,-3.0874,-3.0874,-3.0894,-3.0887,-3.0876,-3.0873,-3.0875,-3.0881,-3.0887,-3.0888,-3.0919,-3.0886,-3.0887,-3.0888,-3.0889,-3.0984,-3.0986,0,0,0,0,0,0,-3.0863,-3.0865,-3.0898,-3.0898,-3.0868,-3.0876,-3.0876,-3.0886,-3.0886,-3.0885,-3.0876,-3.0874,-3.0885,-3.0886,-3.0888,-3.0934,-3.0888,-3.0889,-3.089,-3.0982,-3.0984,-3.0986,0,0,0,0,0,0,-3.0863,-3.0867,-3.0897,-3.0881,-3.0884,-3.0878,-3.0888,-3.0886,-3.0892,-3.0887,-3.0885,-3.0883,-3.0883,-3.0886,-3.0912,-3.0934,-3.089,-3.0891,-3.0981,-3.0983,-3.0985,-3.1025,0,0,0,0,0,0,-3.0861,-3.0866,-3.0881,-3.0882,-3.0885,-3.0921,-3.089,-3.0888,-3.0895,-3.0892,-3.0893,-3.0892,-3.0883,-3.091,-3.0914,-3.0935,-3.0893,-3.0979,-3.0982,-3.0984,-3.1022,-3.1029,-3.1035,0,0,0,0,0,-3.086,-3.0891,-3.0882,-3.0886,-3.0903,-3.0922,-3.0925,-3.0914,-3.0897,-3.0911,-3.0908,-3.0892,-3.0931,-3.0913,-3.0917,-3.0939,-3.0977,-3.0981,-3.0984,-3.1019,-3.1027,-3.1034,0,0,0,0,0,0,-3.0891,-3.089,-3.088,-3.0912,-3.0918,-3.0917,-3.0935,-3.0923,-3.0932,-3.0929,-3.0915,-3.0915,-3.0944,-3.0944,-3.0924,-3.0977,-3.0951,-3.0955,-3.0976,-3.0984,-3.099,-3.099,-3.0894,0,0,0,0,0,-3.0902,-3.0919,-3.0916,-3.0945,-3.0948,-3.0942,-3.0949,-3.0941,-3.0946,-3.0948,-3.0947,-3.0952,-3.0965,-3.0974,-3.0986,-3.1021,-3.1022,-3.1039,-3.1045,-3.105,-3.1055,-3.1076,-3.1084,-3.0998,-3.0998,-3.0997,0,0,-3.0924,-3.0926,-3.0937,-3.0951,-3.0955,-3.0972,-3.0944,-3.0962,-3.0976,-3.095,-3.0976,-3.0975,-3.098,-3.1011,-3.1025,-3.1012,-3.1079,-3.1055,-3.1059,-3.1061,-3.108,-3.1089,-3.1096,-3.1,-3.1,-3.0999,0,0,-3.0974,-3.0976,-3.1002,-3.1006,-3.1012,-3.1008,-3.1014,-3.1015,-3.1015,-3.104,-3.1022,-3.1037,-3.106,-3.1065,-3.107,-3.1124,-3.111,-3.1128,-3.1161,-3.1182,-3.1189,-3.1195,-3.1216,-3.1223,-3.1132,-3.1132,-3.1132,0,-3.1001,-3.1027,-3.1016,-3.1037,-3.1045,-3.1024,-3.105,-3.1054,-3.1064,-3.1069,-3.1055,-3.1085,-3.1086,-3.112,-3.1133,-3.1137,-3.1145,-3.1128,-3.1189,-3.1194,-3.12,-3.122,-3.1228,-3.1135,-3.1134,-3.1134,-3.1134,0,-3.1061,-3.1079,-3.1099,-3.111,-3.112,-3.1143,-3.1136,-3.1147,-3.1138,-3.1135,-3.1162,-3.1163,-3.1176,-3.1183,-3.1173,-3.1216,-3.1208,-3.1191,-3.1165,-3.1211,-3.123,-3.1237,-3.1138,-3.1137,-3.1137,-3.1136,0,0,-3.113,-3.1137,-3.1144,-3.1151,-3.1156,-3.117,-3.1193,-3.1207,-3.1218,-3.1224,-3.1244,-3.1265,-3.125,-3.1257,-3.1247,-3.1265,-3.1311,-3.1246,-3.1246,-3.126,-3.136,-3.1374,-3.1383,-3.1301,-3.1302,-3.1303,-3.136,0,-3.1181,-3.1222,-3.1213,-3.1253,-3.1271,-3.1252,-3.1272,-3.1278,-3.1277,-3.1291,-3.1289,-3.1305,-3.1283,-3.1287,-3.1304,-3.1302,-3.1331,-3.1297,-3.132,-3.1321,-3.1321,-3.1392,-3.1406,-3.146,-3.1367,-3.1368,-3.1369,0,-3.1246,-3.1258,-3.13,-3.1306,-3.1313,-3.1331,-3.1344,-3.1358,-3.1365,-3.1362,-3.1371,-3.1359,-3.1382,-3.1355,-3.1387,-3.1365,-3.1373,-3.1374,-3.1375,-3.1378,-3.1349,-3.1399,-3.1476,-3.1485,-3.138,-3.1379,-3.1378,0,-3.1295,-3.1322,-3.1351,-3.1356,-3.1362,-3.1376,-3.1379,-3.1385,-3.1394,-3.1405,-3.1412,-3.1425,-3.1432,-3.1443,-3.1435,-3.1416,-3.1469,-3.1441,-3.1469,-3.1469,-3.1482,-3.1482,-3.1564,-3.1485,-3.1485,-3.1484,-3.1484,0,-3.1354,-3.1381,-3.1374,-3.1392,-3.1422,-3.1412,-3.1442,-3.1442,-3.1448,-3.1466,-3.1449,-3.1467,-3.1455,-3.1471,-3.1465,-3.1494,-3.1496,-3.1496,-3.1494,-3.1498,-3.1499,-3.1505,-3.1502,-3.1487,-3.1486,-3.1486,-3.1485,0,-3.1415,-3.1411,-3.1442,-3.1446,-3.1448,-3.147,-3.1473,-3.149,-3.1488,-3.1511,-3.1516,-3.1512,-3.153,-3.1524,-3.1543,-3.1539,-3.1576,-3.1569,-3.1575,-3.1574,-3.1602,-3.1601,-3.1693,-3.1706,-3.1616,-3.1617,-3.1618,0,-3.1453,-3.1474,-3.1481,-3.1493,-3.1498,-3.1517,-3.1527,-3.1518,-3.1529,-3.154,-3.1556,-3.1573,-3.1587,-3.1618,-3.1616,-3.1631,-3.1625,-3.1657,-3.1627,-3.1632,-3.1628,-3.1628,-3.1631,-3.1663,-3.1664,-3.1665,-3.1665,0,-3.1523,-3.1521,-3.1537,-3.1553,-3.1567,-3.1579,-3.1589,-3.1599,-3.1591,-3.1605,-3.1624,-3.1635,-3.1656,-3.1674,-3.1688,-3.169,-3.1677,-3.1675,-3.1682,-3.1688,-3.1691,-3.1692,-3.1593,-3.1673,-3.1672,-3.1671,-3.1671,-3.1671,-3.1575,-3.1594,-3.1603,-3.1622,-3.1629,-3.164,-3.1657,-3.1658,-3.1674,-3.1692,-3.1685,-3.1708,-3.1715,-3.1733,-3.1738,-3.1756,-3.1744,-3.1754,-3.1757,-3.176,-3.1765,-3.1687,-3.1758,-3.1758,-3.1758,-3.1757,-3.1757,0,-3.1646,-3.1651,-3.1669,-3.1686,-3.1701,-3.1688,-3.1699,-3.1713,-3.1734,-3.1743,-3.1757,-3.1781,-3.1799,-3.1799,-3.1816,-3.183,-3.1825,-3.1835,-3.1835,-3.1836,-3.1774,-3.1767,-3.184,-3.184,-3.184,-3.1839,-3.1839,-3.1839,-3.1685,-3.1717,-3.1716,-3.1751,-3.1756,-3.178,-3.1788,-3.1798,-3.1805,-3.1833,-3.1848,-3.1849,-3.1854,-3.1872,-3.1888,-3.1887,-3.1895,-3.1908,-3.1906,-3.1848,-3.184,-3.1832,-3.1826,-3.191,-3.191,-3.1967,-3.1967,-3.1968]}]]